2019-037E (44369 NORAD) Tracking and Keplerian Element Data

This shows tracking and keplerian element data for the satellite.

Feedback or suggestion? Click here.




ElementValue
Catalog44369
Name2019-037E
Epoch Orbit449
Epoch Day209.6791813
Epoch Year2019
RAAN125.494
Inclination45.0125
Eccentricity0.0014131
Argument of Perigee74.9312
Mean Anonmoly285.3137
Mean Motion15.39118592
Decay Rate-3.48E-06
L11 44369U 19037E 19209.67918130 -.00000348 00000-0 00000-0 0 9998
L22 44369 45.0125 125.4940 0014131 74.9312 285.3137 15.39118592 4496

Live tracking and technical data element details for 2019-037E (NORAD 44369). 2019-037E can be tracked NOW for your location showing map with azimuth and elevation plus other details from your city location.

Track the satellite on the map from your city or location and see movement details for azimuth, elevation, latitude, longitude, range, height, and movement on the map or in text.







IsCatalogInMostPopularTable: catalog: 44369, numindb: 19
Update: records affected: 1



GetName: 44369 2019-037E

Hit Count: updated at: Tue, 22 Oct 2019 23:31:07 GMT